When you browse on this site, cookies collect data to enhance your experience and personalize the content and advertising you see.
Visit our Privacy Policy to learn more. By continuing to use the site, you agree to this use of cookies and data.
  • In Slovakia
  • List of Countries
  • For 7 days
  • Water Temperature
  • Satellite Maps
  • Weather Map
  • Weather Widgets
  • user-avatar
    Login

    Hourly Weather Wesola

    Today, 23 July, Tuesday

    Time Temperature Precipitation Wind Pressure Humidity
    00:00 +19°C° 0 mm 1 mps 755 mmHg 72%
    01:00 +19°C° 0 mm 1 mps 755 mmHg 78%
    02:00 +18°C° 0 mm 1 mps 755 mmHg 78%
    03:00 +18°C° 0 mm 1 mps 755 mmHg 78%
    04:00 +16°C° 0 mm 1 mps 755 mmHg 77%
    05:00 +18°C° 0 mm 1 mps 755 mmHg 74%
    06:00 +19°C° 0 mm 1 mps 755 mmHg 70%
    07:00 +20°C° 0 mm 1 mps 755 mmHg 67%
    08:00 +20°C° 0 mm 1 mps 755 mmHg 66%
    09:00 +20°C° 0 mm 2 mps 755 mmHg 65%
    10:00 +20°C° 0 mm 3 mps 755 mmHg 64%
    11:00 +20°C° 0 mm 3 mps 755 mmHg 66%
    12:00 +19°C° 0 mm 3 mps 755 mmHg 68%
    13:00 +19°C° 0 mm 3 mps 754 mmHg 70%
    14:00 +20°C° 0 mm 3 mps 754 mmHg 69%
    15:00 +20°C° 0 mm 3 mps 754 mmHg 68%
    16:00 +21°C° 0 mm 3 mps 754 mmHg 67%
    17:00 +20°C° 0 mm 3 mps 754 mmHg 71%
    18:00 +19°C° 0 mm 2 mps 754 mmHg 75%
    19:00 +19°C° 0 mm 2 mps 754 mmHg 78%
    20:00 +18°C° 0 mm 2 mps 754 mmHg 81%
    21:00 +17°C° 0 mm 2 mps 754 mmHg 85%
    22:00 +18°C° 0 mm 1 mps 754 mmHg 88%
    23:00 +18°C° 0 mm 1 mps 754 mmHg 88%

    Tomorrow, 24 July, Wednesday

    Time Temperature Precipitation Wind Pressure Humidity
    00:00 +18°C° 0 mm 1 mps 754 mmHg 88%
    01:00 +16°C° 0 mm 1 mps 754 mmHg 89%
    02:00 +16°C° 0 mm 0 mps 754 mmHg 89%
    03:00 +16°C° 0 mm 0 mps 754 mmHg 89%
    04:00 +16°C° 0 mm 0 mps 753 mmHg 89%
    05:00 +16°C° 0 mm 0 mps 753 mmHg 88%
    06:00 +17°C° 0 mm 0 mps 753 mmHg 87%
    07:00 +17°C° 0 mm 0 mps 753 mmHg 86%
    08:00 +20°C° 0 mm 1 mps 754 mmHg 80%
    09:00 +22°C° 0 mm 1 mps 754 mmHg 74%
    10:00 +23°C° 0 mm 1 mps 754 mmHg 67%
    11:00 +24°C° 0.2 mm 1 mps 754 mmHg 65%
    12:00 +25°C° 0.2 mm 2 mps 754 mmHg 63%
    13:00 +25°C° 0.2 mm 2 mps 754 mmHg 60%
    14:00 +26°C° 0 mm 2 mps 753 mmHg 59%
    15:00 +26°C° 0 mm 2 mps 753 mmHg 57%
    16:00 +27°C° 0 mm 2 mps 753 mmHg 55%
    17:00 +26°C° 0 mm 2 mps 753 mmHg 60%
    18:00 +25°C° 0 mm 1 mps 753 mmHg 65%
    19:00 +24°C° 0 mm 1 mps 753 mmHg 70%
    20:00 +22°C° 0 mm 1 mps 753 mmHg 73%
    21:00 +19°C° 0 mm 0 mps 754 mmHg 76%
    22:00 +18°C° 0 mm 0 mps 754 mmHg 80%
    23:00 +18°C° 0 mm 0 mps 754 mmHg 81%

    Day after tomorrow, 25 July, Thursday

    Time Temperature Precipitation Wind Pressure Humidity
    00:00 +17°C° 0 mm 0 mps 754 mmHg 82%
    01:00 +17°C° 0 mm 0 mps 754 mmHg 83%
    02:00 +17°C° 0 mm 0 mps 754 mmHg 84%
    03:00 +17°C° 0 mm 0 mps 754 mmHg 84%
    04:00 +16°C° 0 mm 0 mps 754 mmHg 85%
    05:00 +18°C° 0 mm 0 mps 754 mmHg 80%
    06:00 +20°C° 0 mm 0 mps 754 mmHg 75%
    07:00 +21°C° 0 mm 0 mps 754 mmHg 70%
    08:00 +23°C° 0.1 mm 0 mps 754 mmHg 65%
    09:00 +26°C° 0.1 mm 1 mps 754 mmHg 60%
    10:00 +27°C° 0.1 mm 1 mps 754 mmHg 56%
    11:00 +28°C° 0.1 mm 2 mps 754 mmHg 54%
    12:00 +28°C° 0.1 mm 2 mps 753 mmHg 52%
    13:00 +28°C° 0.1 mm 2 mps 753 mmHg 51%
    14:00 +28°C° 0.1 mm 3 mps 753 mmHg 51%
    15:00 +28°C° 0.1 mm 4 mps 753 mmHg 52%
    16:00 +28°C° 0.1 mm 4 mps 753 mmHg 52%
    17:00 +27°C° 0 mm 4 mps 752 mmHg 56%
    18:00 +26°C° 0 mm 4 mps 752 mmHg 60%
    19:00 +24°C° 0 mm 3 mps 752 mmHg 64%
    20:00 +22°C° 0 mm 3 mps 753 mmHg 68%
    21:00 +20°C° 0 mm 3 mps 753 mmHg 72%
    22:00 +19°C° 0 mm 3 mps 753 mmHg 76%
    23:00 +18°C° 0 mm 3 mps 753 mmHg 80%

    26 July, Friday

    Time Temperature Precipitation Wind Pressure Humidity
    00:00 +18°C° 0 mm 2 mps 753 mmHg 84%
    01:00 +17°C° 0 mm 2 mps 753 mmHg 88%
    02:00 +17°C° 0 mm 2 mps 753 mmHg 89%
    03:00 +16°C° 0 mm 2 mps 752 mmHg 90%
    04:00 +16°C° 0 mm 2 mps 752 mmHg 91%
    05:00 +17°C° 0 mm 2 mps 752 mmHg 86%
    06:00 +18°C° 0 mm 3 mps 752 mmHg 81%
    07:00 +20°C° 0 mm 3 mps 752 mmHg 76%
    08:00 +21°C° 0 mm 3 mps 752 mmHg 68%
    09:00 +24°C° 0 mm 3 mps 752 mmHg 60%
    10:00 +25°C° 0 mm 4 mps 752 mmHg 52%
    11:00 +26°C° 0.1 mm 4 mps 752 mmHg 51%
    12:00 +26°C° 0.1 mm 4 mps 751 mmHg 50%
    13:00 +27°C° 0.1 mm 4 mps 751 mmHg 49%
    14:00 +26°C° 0.2 mm 4 mps 751 mmHg 52%
    15:00 +26°C° 0.2 mm 4 mps 751 mmHg 55%
    16:00 +26°C° 0.2 mm 4 mps 750 mmHg 58%
    17:00 +25°C° 0.1 mm 4 mps 750 mmHg 63%
    18:00 +24°C° 0.1 mm 3 mps 750 mmHg 69%
    19:00 +21°C° 0.1 mm 3 mps 750 mmHg 74%
    20:00 +21°C° 0 mm 3 mps 751 mmHg 78%
    21:00 +20°C° 0 mm 3 mps 751 mmHg 81%
    22:00 +19°C° 0 mm 2 mps 751 mmHg 85%
    23:00 +19°C° 0 mm 2 mps 751 mmHg 87%

    27 July, Saturday

    Time Temperature Precipitation Wind Pressure Humidity
    00:00 +18°C° 0 mm 2 mps 750 mmHg 89%
    01:00 +17°C° 0 mm 2 mps 750 mmHg 91%
    02:00 +17°C° 0 mm 2 mps 750 mmHg 92%
    03:00 +17°C° 0 mm 2 mps 750 mmHg 92%
    04:00 +17°C° 0 mm 2 mps 750 mmHg 92%
    05:00 +18°C° 0 mm 3 mps 750 mmHg 89%
    06:00 +19°C° 0 mm 3 mps 750 mmHg 85%
    07:00 +20°C° 0 mm 3 mps 750 mmHg 81%
    08:00 +22°C° 0 mm 3 mps 750 mmHg 74%
    09:00 +24°C° 0 mm 3 mps 750 mmHg 67%
    10:00 +26°C° 0 mm 4 mps 750 mmHg 60%
    11:00 +27°C° 0 mm 4 mps 750 mmHg 57%
    12:00 +27°C° 0 mm 4 mps 749 mmHg 54%
    13:00 +28°C° 0 mm 4 mps 749 mmHg 51%
    14:00 +28°C° 0.4 mm 4 mps 749 mmHg 54%
    15:00 +28°C° 0.4 mm 4 mps 748 mmHg 57%
    16:00 +27°C° 0.4 mm 5 mps 748 mmHg 61%
    17:00 +26°C° 0.1 mm 4 mps 748 mmHg 65%
    18:00 +25°C° 0.1 mm 4 mps 748 mmHg 70%
    19:00 +24°C° 0.1 mm 3 mps 748 mmHg 75%
    20:00 +22°C° 0 mm 3 mps 748 mmHg 79%
    21:00 +22°C° 0 mm 3 mps 748 mmHg 83%
    22:00 +21°C° 0 mm 3 mps 748 mmHg 87%
    23:00 +20°C° 0 mm 3 mps 748 mmHg 88%

    28 July, Sunday

    Time Temperature Precipitation Wind Pressure Humidity
    00:00 +20°C° 0 mm 3 mps 748 mmHg 89%
    01:00 +20°C° 0 mm 3 mps 748 mmHg 91%
    02:00 +19°C° 0 mm 3 mps 748 mmHg 91%
    03:00 +19°C° 0 mm 3 mps 748 mmHg 92%
    04:00 +19°C° 0 mm 3 mps 748 mmHg 93%
    05:00 +20°C° 0 mm 4 mps 748 mmHg 88%
    06:00 +21°C° 0 mm 4 mps 748 mmHg 82%
    07:00 +22°C° 0 mm 4 mps 748 mmHg 77%
    08:00 +25°C° 0 mm 5 mps 748 mmHg 70%
    09:00 +26°C° 0 mm 5 mps 749 mmHg 63%
    10:00 +28°C° 0 mm 5 mps 749 mmHg 57%
    11:00 +29°C° 0 mm 5 mps 748 mmHg 54%
    12:00 +29°C° 0 mm 5 mps 748 mmHg 52%
    13:00 +30°C° 0 mm 5 mps 748 mmHg 49%
    14:00 +30°C° 0 mm 5 mps 748 mmHg 49%
    15:00 +30°C° 0 mm 5 mps 748 mmHg 48%
    16:00 +30°C° 0 mm 5 mps 748 mmHg 48%
    17:00 +29°C° 0 mm 4 mps 748 mmHg 54%
    18:00 +28°C° 0 mm 4 mps 748 mmHg 61%
    19:00 +26°C° 0 mm 3 mps 748 mmHg 67%
    20:00 +25°C° 0 mm 3 mps 748 mmHg 71%
    21:00 +24°C° 0 mm 3 mps 748 mmHg 76%
    22:00 +22°C° 0 mm 3 mps 749 mmHg 80%
    23:00 +22°C° 0 mm 3 mps 749 mmHg 83%
    Show more